Total_Precipitation_Accumulation
1.88 2.03 1.78 2.21 2.61 3.55 3.90 4.61 5.06 4.99 5.60 7.65 6.86 5.27 5.64 6.61 6.45 5.30 4.34 3.59 3.40 3.58 3.27 3.18 3.10 3.14 3.52 3.67 3.56 3.49 3.36 3.33 2.96 2.24 2.24 2.32 2.70 3.38 3.34 4.07 4.39 2.56 1.77
3.23 3.74 2.91 2.96 3.24 3.40 3.96 4.23 4.23 4.37 5.41 6.44 7.35 7.70 6.62 6.48 6.52 7.01 6.08 4.98 4.25 3.89 3.68 3.75 4.01 3.94 3.74 3.46 3.58 3.90 3.78 3.55 3.71 3.66 3.33 3.44 3.19 3.54 3.92 3.75 4.36 3.27 1.90
3.77 4.17 3.61 3.56 3.45 3.62 3.75 3.87 3.95 3.80 3.92 5.26 6.98 7.64 8.41 8.26 7.57 7.41 6.90 6.20 6.12 5.37 4.84 4.37 4.16 4.25 4.15 3.83 3.47 3.23 3.30 3.57 3.47 3.54 3.41 3.36 3.90 3.88 4.72 4.79 5.11 3.89 2.87
2.54 3.22 3.35 3.40 3.70 3.29 3.00 3.19 3.49 3.55 3.64 3.94 4.98 5.92 7.15 8.12 8.40 7.88 7.64 7.05 6.13 5.92 5.87 5.49 4.76 4.59 4.58 4.42 4.21 3.91 3.61 3.45 3.41 3.39 3.40 3.29 3.60 4.17 4.95 5.50 5.90 5.18 3.42
2.02 2.01 2.31 2.87 3.05 2.97 3.25 3.38 3.11 3.38 3.79 3.93 4.16 4.22 4.54 5.92 7.26 7.74 7.53 7.20 6.84 6.01 5.03 5.06 5.48 5.55 5.11 4.76 4.83 4.69 4.52 4.64 4.98 4.87 4.50 4.53 4.27 3.88 4.30 4.98 5.75 5.15 4.57
1.64 1.96 1.92 1.81 1.93 2.27 2.39 2.45 2.26 2.74 3.24 3.31 3.88 3.67 3.99 3.97 5.33 5.66 6.56 7.36 7.97 8.15 7.38 6.08 5.60 6.07 5.58 5.37 5.28 5.06 4.81 4.86 4.90 4.80 4.94 4.94 4.63 4.56 4.48 5.10 5.84 6.22 6.23
1.38 1.50 1.56 1.76 2.07 2.10 2.44 2.48 2.53 2.48 2.74 3.08 3.28 2.96 2.90 3.07 4.07 4.09 4.73 4.92 5.62 6.19 6.64 6.77 6.01 5.84 5.52 4.40 5.16 4.92 4.80 5.04 4.92 4.77 4.60 4.58 4.78 5.25 5.31 5.87 6.01 6.16 6.21
1.27 1.45 1.56 1.45 1.52 1.71 1.97 2.24 2.77 3.18 3.13 2.89 2.67 2.68 2.57 2.73 3.30 2.88 3.42 3.34 3.76 3.95 4.17 4.86 5.13 4.87 5.32 5.03 4.45 4.83 4.85 4.89 5.13 5.29 5.15 5.18 5.46 5.83 6.03 5.83 5.47 5.76 6.20
1.09 1.19 1.26 1.42 1.57 1.61 1.75 2.11 2.25 2.43 2.42 2.50 2.48 2.40 2.37 2.44 2.89 2.66 2.48 1.93 2.29 2.61 2.77 3.04 3.71 3.83 4.86 4.48 3.77 4.03 4.28 4.52 5.24 5.20 4.69 4.88 5.24 5.30 5.26 5.44 5.98 5.93 5.95
0.92 1.08 1.20 1.31 1.64 1.94 2.13 2.04 1.89 1.91 2.18 2.36 2.51 2.57 2.62 2.08 2.58 2.46 2.44 2.22 2.27 2.20 2.32 2.50 3.66 3.13 3.85 3.40 3.22 3.26 3.57 3.75 3.51 3.55 3.72 3.81 3.68 4.07 4.88 4.26 4.19 4.75 5.16
0.90 0.95 1.22 1.48 1.57 1.76 1.89 1.99 2.09 2.11 2.05 2.15 2.29 2.43 2.52 2.45 2.40 2.47 2.46 2.32 2.61 2.71 2.62 2.57 2.80 3.64 2.94 2.83 3.03 3.13 4.34 4.26 4.47 3.80 3.49 3.53 3.37 3.30 3.61 3.91 3.86 4.38 4.73
0.68 0.74 0.81 0.90 1.18 1.35 1.53 1.69 1.67 1.68 1.77 1.78 1.82 1.97 1.97 2.17 2.55 2.52 2.25 2.33 2.65 2.51 2.86 2.95 3.34 3.60 2.85 2.76 2.92 3.69 4.18 3.68 3.03 3.03 3.21 3.56 3.79 3.82 3.84 3.96 4.19 4.29 4.26
0.66 0.75 0.82 0.83 0.89 1.06 1.16 1.24 1.23 1.26 1.26 1.26 1.27 1.36 1.47 1.50 1.70 1.95 1.85 1.91 2.13 2.16 2.49 2.81 2.95 2.76 2.42 2.46 2.84 3.09 3.06 2.94 3.28 3.71 3.94 4.19 4.29 4.21 3.91 3.98 4.08 4.06 3.98
0.60 0.71 0.82 0.81 0.91 0.92 0.89 0.83 0.78 0.86 0.92 0.99 1.10 1.16 1.17 1.24 1.34 1.48 1.50 1.49 1.64 1.87 2.25 2.42 2.47 2.54 2.55 2.57 2.65 2.66 2.68 2.93 3.11 3.29 3.42 3.55 3.44 3.29 3.41 3.47 3.45 3.39 3.65
0.49 0.64 0.67 0.69 0.70 0.65 0.76 0.85 0.74 0.85 0.94 0.94 1.09 1.22 1.42 1.69 1.80 1.63 1.56 1.70 1.80 1.94 2.05 2.31 2.50 2.48 2.34 2.26 2.26 2.28 2.33 2.37 2.47 2.43 2.40 2.39 2.40 2.36 2.39 2.37 2.53 2.60 2.87
0.50 0.45 0.65 0.63 0.63 0.65 0.66 0.95 1.18 1.15 1.13 1.18 1.23 1.25 1.51 1.72 1.79 1.71 1.70 1.69 1.72 1.74 1.82 1.86 1.89 1.85 1.78 1.70 1.59 1.54 1.57 1.59 1.49 1.41 1.41 1.42 1.51 1.54 1.53 1.53 1.62 1.73 1.85
0.65 0.50 0.58 0.69 0.65 0.67 0.81 0.81 0.95 1.37 1.45 1.57 1.63 1.67 1.56 1.73 1.64 1.58 1.45 1.39 1.42 1.29 1.38 1.32 1.27 1.23 1.13 1.00 0.91 0.88 1.00 0.94 0.82 0.86 0.88 0.87 0.87 0.94 1.27 1.09 1.09 1.14 1.27
1.25 1.24 1.01 1.00 1.07 1.11 1.24 1.50 1.57 1.63 1.87 2.17 2.17 1.93 1.78 1.56 1.51 1.47 1.34 1.31 1.39 1.08 0.90 0.82 0.76 0.67 0.66 0.66 0.59 0.59 0.65 0.66 0.64 0.55 0.52 0.55 0.61 0.68 0.76 0.78 0.79 0.88 0.94
1.56 1.63 1.56 1.49 1.52 1.59 1.54 1.63 1.70 1.59 1.50 1.48 1.46 1.48 1.35 1.19 1.05 0.97 0.89 0.93 0.81 0.69 0.62 0.60 0.59 0.55 0.58 0.59 0.58 0.56 0.69 0.69 0.68 0.65 0.58 0.64 0.69 0.73 0.70 0.66 0.71 0.81 0.92
1.69 1.85 1.72 1.57 1.56 1.47 1.41 1.28 1.29 1.25 1.13 0.97 0.90 0.91 0.91 0.93 1.02 0.92 0.79 0.70 0.66 0.64 0.61 0.57 0.55 0.51 0.52 0.52 0.51 0.53 0.55 0.62 0.64 0.61 0.50 0.49 0.51 0.52 0.55 0.49 0.50 0.56 0.53
1.63 1.55 1.41 1.21 1.18 1.12 1.10 1.09 1.08 1.12 1.08 0.91 0.87 0.75 0.58 0.61 0.63 0.56 0.58 0.64 0.61 0.58 0.58 0.52 0.51 0.49 0.47 0.46 0.46 0.45 0.42 0.42 0.45 0.52 0.44 0.46 0.54 0.53 0.48 0.50 0.48 0.47 0.48
1.09 0.97 0.89 0.88 0.90 0.95 0.89 0.87 0.87 0.92 0.91 0.82 0.80 0.73 0.65 0.67 0.56 0.57 0.59 0.61 0.57 0.52 0.49 0.46 0.46 0.44 0.41 0.47 0.50 0.50 0.47 0.44 0.43 0.48 0.39 0.37 0.42 0.47 0.46 0.49 0.47 0.47 0.47
0.73 0.73 0.69 0.70 0.72 0.73 0.71 0.71 0.77 0.93 0.98 0.92 0.84 0.85 0.93 0.87 0.72 0.67 0.68 0.69 0.62 0.59 0.54 0.53 0.55 0.48 0.47 0.50 0.53 0.56 0.58 0.49 0.47 0.56 0.55 0.46 0.43 0.47 0.45 0.43 0.42 0.47 0.45
0.80 0.78 0.76 0.78 0.75 0.72 0.71 0.74 0.80 0.87 0.90 1.04 1.03 0.88 0.85 0.85 0.85 0.80 0.78 0.76 0.74 0.68 0.63 0.65 0.62 0.57 0.51 0.55 0.54 0.50 0.52 0.56 0.61 0.60 0.60 0.61 0.53 0.52 0.48 0.45 0.39 0.39 0.42
0.54 0.83 0.95 0.95 0.97 1.02 0.97 0.93 0.95 0.99 1.00 1.03 1.01 0.91 0.76 0.76 0.74 0.71 0.67 0.63 0.61 0.61 0.57 0.56 0.57 0.59 0.53 0.53 0.54 0.49 0.54 0.55 0.51 0.53 0.65 0.64 0.55 0.51 0.53 0.50 0.49 0.53 0.48
0.25 0.40 0.62 0.77 0.88 1.04 1.18 1.20 1.20 1.17 1.15 1.05 0.98 0.93 0.80 0.73 0.67 0.65 0.65 0.63 0.63 0.62 0.60 0.60 0.56 0.54 0.56 0.57 0.54 0.56 0.52 0.45 0.47 0.48 0.57 0.59 0.63 0.62 0.63 0.61 0.56 0.64 0.57